Weather History for Kahului, HI

Change the Weather History Date:

Wednesday, July 10, 2013

  Actual Average Record
Temperature  
Mean Temperature 81 °F 79 °F  
Max Temperature 88 °F 87 °F 93 °F (1951)
Min Temperature 73 °F 71 °F 63 °F (1953)
Degree Days  
Heating Degree Days 0 0  
Month to date heating degree days 0 0  
Since 1 June heating degree days 0 0  
Since 1 July heating degree days 0 0  
Cooling Degree Days 16 14  
Month to date cooling degree days 142 140  
Year to date cooling degree days 1968 1787  
Since 1 June cooling degree days 584 528  
Growing Degree Days 30 (Base 50)    
Moisture  
Dew Point 71 °F    
Average Humidity 72    
Maximum Humidity 94    
Minimum Humidity 50    
Precipitation  
Precipitation T in 0.02 in 0.31 in (1965)
Month to date precipitation 0.02 0.13  
Year to date precipitation 7.28 9.83  
Snow  
Snow 0.00 in - - ()
Month to date snowfall 0.0  
Since 1 June snowfall 0.0  
Since 1 July snowfall 0.0  
Snow Depth 0.00 in    
Sea Level Pressure  
Sea Level Pressure 30.14 in    
Wind  
Wind Speed 18 mph (ENE)    
Max Wind Speed 33 mph    
Max Gust Speed 41 mph    
Visibility 10 miles    
Events      
T = Trace of Precipitation, MM = Missing Value Source: NWS Daily Summary

Daily Weather History Graph

Daily Weather History Graph

Search for Another Location

Airport:

Trip Planner

Search our weather history database for the weather conditions in past years. The results will help you decide how hot, cold, wet, or windy it might be!

Date:

Astronomy

Jul. 10, 2013 Rise Set
Actual Time 5:51 AM HST 7:10 PM HST
Civil Twilight 5:26 AM HST 7:35 PM HST
Nautical Twilight 4:57 AM HST 8:04 PM HST
Astronomical Twilight 4:27 AM HST 8:34 PM HST
Moon 7:59 AM HST (7/10) 8:53 PM HST (7/10)
Length of Visible Light 14h 08m
Length of Day
13h 19m
Waxing Crescent, 6% of the Moon is Illuminated
Jul 10
Waxing Crescent
Jul 15
First Quarter
Jul 22
Full
Jul 29
Last Quarter
Aug 6
New

Hourly Weather History & Observations

Time (HST) Temp. Heat Index Dew Point Humidity Pressure Visibility Wind Dir Wind Speed Gust Speed Precip Events Conditions
12:54 AM 77.0 °F - 73.9 °F 90% 30.16 in 10.0 mi ENE 13.8 mph 23.0 mph N/A   Scattered Clouds
1:54 AM 75.9 °F - 73.0 °F 91% 30.14 in 10.0 mi ENE 15.0 mph 20.7 mph N/A   Scattered Clouds
2:54 AM 75.0 °F - 71.1 °F 87% 30.13 in 10.0 mi ENE 12.7 mph - N/A   Clear
3:54 AM 73.9 °F - 72.0 °F 93% 30.13 in 10.0 mi ENE 19.6 mph 27.6 mph N/A   Scattered Clouds
4:54 AM 75.0 °F - 70.0 °F 84% 30.14 in 10.0 mi ENE 20.7 mph 27.6 mph N/A   Partly Cloudy
5:54 AM 75.0 °F - 68.0 °F 79% 30.15 in 10.0 mi NE 15.0 mph - N/A   Scattered Clouds
6:54 AM 75.0 °F - 72.0 °F 90% 30.16 in 10.0 mi NE 19.6 mph 28.8 mph N/A   Scattered Clouds
7:54 AM 79.0 °F - 72.0 °F 79% 30.17 in 10.0 mi NE 18.4 mph 25.3 mph N/A   Partly Cloudy
8:54 AM 82.0 °F 86.7 °F 72.0 °F 71% 30.17 in 10.0 mi ENE 18.4 mph 27.6 mph N/A   Partly Cloudy
9:54 AM 84.9 °F 88.8 °F 69.1 °F 59% 30.17 in 10.0 mi ENE 21.9 mph 28.8 mph N/A   Scattered Clouds
10:54 AM 87.1 °F 92.0 °F 70.0 °F 57% 30.16 in 10.0 mi ENE 19.6 mph 29.9 mph N/A   Partly Cloudy
11:54 AM 84.9 °F 90.1 °F 71.1 °F 63% 30.15 in 10.0 mi ENE 19.6 mph 33.4 mph N/A   Scattered Clouds
12:54 PM 87.1 °F 89.9 °F 66.9 °F 51% 30.13 in 10.0 mi East 21.9 mph 36.8 mph 0.00 in   Partly Cloudy
1:54 PM 87.1 °F 92.0 °F 70.0 °F 57% 30.12 in 10.0 mi ENE 20.7 mph 32.2 mph N/A   Partly Cloudy
2:54 PM 86.0 °F 90.7 °F 70.0 °F 59% 30.12 in 10.0 mi ENE 16.1 mph 32.2 mph 0.00 in   Partly Cloudy
3:54 PM 86.0 °F 90.7 °F 70.0 °F 59% 30.11 in 10.0 mi ENE 21.9 mph 32.2 mph 0.00 in   Partly Cloudy
4:54 PM 82.9 °F 86.5 °F 69.1 °F 63% 30.10 in 10.0 mi NE 23.0 mph 33.4 mph 0.00 in   Scattered Clouds
5:54 PM 79.0 °F - 71.1 °F 77% 30.11 in 10.0 mi NE 25.3 mph 35.7 mph N/A   Scattered Clouds
6:54 PM 75.9 °F - 69.1 °F 79% 30.13 in 10.0 mi ENE 13.8 mph 23.0 mph N/A   Partly Cloudy
7:54 PM 75.9 °F - 71.1 °F 85% 30.15 in 10.0 mi NE 11.5 mph - N/A   Partly Cloudy
8:54 PM 75.9 °F - 70.0 °F 82% 30.16 in 10.0 mi ENE 9.2 mph - N/A   Scattered Clouds
9:54 PM 75.9 °F - 68.0 °F 76% 30.15 in 10.0 mi ENE 12.7 mph - N/A   Scattered Clouds
10:54 PM 75.9 °F - 68.0 °F 76% 30.15 in 10.0 mi ENE 12.7 mph 19.6 mph 0.00 in   Clear
11:54 PM 75.0 °F - 71.1 °F 87% 30.14 in 10.0 mi NE 13.8 mph - 0.00 in   Mostly Cloudy